DW7955 Weather Reports


Display with metric or nautical units.
time (UTC)temp
F
wind
direction
speed
MPH
gust
MPH
rain 1hr
in
rain 24hr
in
rain mn
in
humidity
%
barometer
mb
20260510213002 65 63 11.0 22.0 0.00 0.00 0.00 44 1016.5
20260510211500 65 56 8.0 14.0 0.00 0.00 0.00 45 1016.7
20260510210059 64 90 8.0 15.0 0.00 0.00 0.00 44 1016.8
20260510204605 65 45 5.0 14.0 0.00 0.00 0.00 46 1016.9
20260510203058 65 124 5.0 12.0 0.00 0.00 0.00 46 1017.0
20260510201558 64 133 5.0 12.0 0.00 0.00 0.00 46 1017.0
20260510200107 64 185 4.0 8.0 0.00 0.00 0.00 47 1016.9
20260510194605 62 51 6.0 15.0 0.00 0.00 0.00 49 1017.0
20260510193102 62 134 8.0 14.0 0.00 0.00 0.00 49 1017.0
20260510191551 63 92 5.0 9.0 0.00 0.00 0.00 50 1017.1
20260510190053 61 180 4.0 10.0 0.00 0.00 0.00 52 1017.1
20260510184551 60 141 3.0 13.0 0.00 0.00 0.00 55 1017.1
20260510183044 60 168 4.0 10.0 0.00 0.00 0.00 55 1017.2
20260510181541 59 150 4.0 11.0 0.00 0.00 0.00 58 1017.4
20260510180042 59 181 4.0 14.0 0.00 0.00 0.00 57 1017.4
20260510174540 58 73 5.0 12.0 0.00 0.00 0.00 61 1017.4
20260510173035 57 108 4.0 14.0 0.00 0.00 0.00 64 1017.5
20260510171535 57 131 8.0 12.0 0.00 0.00 0.00 63 1017.4
20260510170032 57 122 3.0 16.0 0.00 0.00 0.00 66 1017.3
20260510164531 56 124 6.0 11.0 0.00 0.00 0.00 68 1017.4
20260510163031 55 78 3.0 8.0 0.00 0.00 0.00 70 1017.4
20260510161531 55 123 2.0 11.0 0.00 0.00 0.00 70 1017.4
20260510160034 55 111 2.0 10.0 0.00 0.00 0.00 68 1017.5
20260510154528 53 119 3.0 7.0 0.00 0.00 0.00 72 1017.5
20260510153022 53 81 4.0 9.0 0.00 0.00 0.00 73 1017.5
20260510151525 52 74 2.0 7.0 0.00 0.00 0.00 74 1017.4
20260510150020 52 71 4.0 8.0 0.00 0.00 0.00 75 1017.4
20260510144522 52 35 1.0 5.0 0.00 0.00 0.00 75 1017.3
20260510143019 52 46 3.0 5.0 0.00 0.00 0.00 77 1017.3
20260510141518 52 66 0.0 2.0 0.00 0.00 0.00 75 1017.4
20260510140014 52 149 0.0 1.0 0.00 0.00 0.00 75 1017.2
20260510134514 52 149 0.0 3.0 0.00 0.00 0.00 74 1017.2
20260510133012 52 50 0.0 3.0 0.00 0.00 0.00 76 1017.3
20260510131509 51 56 2.0 4.0 0.00 0.00 0.00 79 1017.1
20260510130007 50 129 0.0 2.0 0.00 0.00 0.00 82 1016.9
20260510124507 49 128 0.0 0.0 0.00 0.00 0.00 83 1016.8
20260510123006 49 128 0.0 0.0 0.00 0.00 0.00 83 1016.9
20260510121504 49 128 0.0 0.0 0.00 0.00 0.00 84 1016.7
20260510120002 49 128 0.0 0.0 0.00 0.00 0.00 83 1016.7
20260510114502 49 128 0.0 0.0 0.00 0.00 0.00 84 1016.6
20260510113001 49 128 0.0 0.0 0.00 0.00 0.00 84 1016.5
20260510111609 49 128 0.0 0.0 0.00 0.00 0.00 84 1016.5
20260510110059 49 128 0.0 3.0 0.00 0.00 0.00 84 1016.5
20260510104620 49 55 1.0 6.0 0.00 0.00 0.00 84 1016.4
20260510103058 49 54 3.0 5.0 0.00 0.00 0.00 84 1016.6
20260510101607 49 10 2.0 6.0 0.00 0.00 0.00 84 1016.5
20260510094605 49 11 4.0 7.0 0.00 0.00 0.00 83 1016.5
20260510093054 49 7 6.0 11.0 0.00 0.00 0.00 83 1016.4
20260510091551 50 5 5.0 11.0 0.00 0.00 0.00 82 1016.2
20260510090052 50 36 6.0 12.0 0.00 0.00 0.00 82 1016.1
20260510084548 50 43 5.0 11.0 0.00 0.00 0.00 82 1016.2
20260510083047 50 6 5.0 12.0 0.00 0.00 0.00 82 1016.0
20260510081545 50 339 5.0 9.0 0.00 0.00 0.00 82 1015.8
20260510080043 50 40 6.0 11.0 0.00 0.00 0.00 81 1015.6
20260510074545 50 43 4.0 12.0 0.00 0.00 0.00 81 1015.4
20260510073044 50 32 9.0 17.0 0.00 0.00 0.00 80 1015.3
20260510071539 50 31 10.0 20.0 0.00 0.00 0.00 78 1015.3
20260510070037 51 57 11.0 22.0 0.00 0.00 0.00 75 1015.3
20260510064529 53 15 13.0 24.0 0.00 0.00 0.00 69 1014.6
20260510063026 53 40 15.0 24.0 0.00 0.00 0.00 66 1014.1
20260510061523 54 34 16.0 30.0 0.00 0.00 0.00 63 1014.0
20260510060020 54 10 14.0 28.0 0.00 0.00 0.00 62 1013.5
20260510054516 55 40 20.0 35.0 0.00 0.00 0.00 60 1012.7
20260510053013 55 32 17.0 31.0 0.00 0.00 0.00 58 1011.4
20260510051511 56 9 22.0 37.0 0.00 0.00 0.00 58 1010.5
20260510050014 56 15 21.0 34.0 0.00 0.00 0.00 56 1010.6
20260510044511 57 1 24.0 36.0 0.00 0.00 0.00 53 1010.4
20260510043010 57 7 22.0 42.0 0.00 0.00 0.00 54 1010.2
20260510041506 58 346 24.0 42.0 0.00 0.00 0.00 53 1009.7
20260510040002 59 340 24.0 38.0 0.00 0.00 0.00 51 1009.3
20260510034600 63 9 17.0 27.0 0.00 0.00 0.00 40 1008.9
20260510033126 66 18 3.0 8.0 0.00 0.00 0.00 34 1007.7
20260510031622 67 80 7.0 12.0 0.00 0.00 0.00 32 1006.7
20260510030101 66 58 7.0 10.0 0.00 0.00 0.00 32 1006.5
20260510024557 67 59 7.0 11.0 0.00 0.00 0.00 31 1006.1
20260510023056 68 34 6.0 9.0 0.00 0.00 0.00 29 1005.6
20260510021556 69 53 8.0 11.0 0.00 0.00 0.00 28 1005.2
20260510020055 70 74 5.0 10.0 0.00 0.00 0.00 25 1004.7
20260510014606 70 75 4.0 9.0 0.00 0.00 0.00 24 1004.2
20260510013054 71 117 4.0 7.0 0.00 0.00 0.00 22 1004.3
20260510011559 72 32 3.0 17.0 0.00 0.00 0.00 23 1004.7
20260510004557 71 336 4.0 14.0 0.00 0.00 0.00 27 1005.4
20260510003059 71 7 9.0 22.0 0.00 0.00 0.00 25 1005.0
20260510001552 72 36 9.0 16.0 0.00 0.00 0.00 24 1004.5
20260510000055 73 9 10.0 22.0 0.00 0.00 0.00 21 1004.4
20260509234605 74 13 19.0 32.0 0.00 0.00 0.00 20 1003.6
20260509233050 74 37 6.0 23.0 0.00 0.00 0.00 19 1003.2
20260509231550 75 65 9.0 17.0 0.00 0.00 0.00 18 1002.7
20260509230052 75 49 11.0 16.0 0.00 0.00 0.00 18 1002.8
20260509224549 75 22 9.0 20.0 0.00 0.00 0.00 18 1002.5
20260509223056 75 1 12.0 27.0 0.00 0.00 0.00 18 1002.6
20260509221551 78 10 13.0 22.0 0.00 0.00 0.00 16 1002.4
20260509220058 81 176 7.0 12.0 0.00 0.00 0.00 12 1001.8
20260509214547 81 125 4.0 7.0 0.00 0.00 0.00 12 1001.8
20260509213045 80 200 3.0 12.0 0.00 0.00 0.00 12 1002.0